DW8907 Agen FR current weather conditions

sailwx.info

Wind from 093

Air temperature 17.2° C
Dewpoint 11.5° C

Last reported at 2019-Sep-18 02:00 UTC.
Time now 2019-Sep-18 02:51 UTC

Location: N 44°27' E 000°18'.
View on Google Maps.

See reports from other nearby stations

  
Tides and Currents Weather Stations Pressure Air Temp Water Temp Dewpoint Dewpoint Depression Visibility Wind Speed Wind Dir Waves Ship Positions
date/time (UTC)wind fromknots sea level pressurealtimeterstation pressurevisibilityair tempwater tempwave heightnotes
2019-Sep-18 02:30 093 16.1
2019-Sep-18 02:15 093 16.7
2019-Sep-18 02:00 093 17.2
2019-Sep-18 01:47 093 17.8
2019-Sep-18 01:33 093 17.8
2019-Sep-18 01:16 082 18.3
2019-Sep-18 01:02 043 18.9
2019-Sep-18 00:46 310 18.9
2019-Sep-18 00:32 210 18.9
2019-Sep-18 00:16 204 18.3
2019-Sep-18 00:02 204 18.3
2019-Sep-17 23:46 204 0 gusting 1 18.3
2019-Sep-17 23:31 237 18.9
2019-Sep-17 23:16 237 18.9
2019-Sep-17 23:00 237 19.4
2019-Sep-17 22:46 285 20.6
2019-Sep-17 22:30 285 21.7
2019-Sep-17 22:15 276 22.8
2019-Sep-17 22:00 354 22.8
2019-Sep-17 21:45 328 22.8
2019-Sep-17 21:30 278 23.3
2019-Sep-17 21:15 278 23.9
2019-Sep-17 21:00 030 24.4
2019-Sep-17 20:45 310 24.4
2019-Sep-17 20:30 026 25.0
2019-Sep-17 20:15 016 25.0
2019-Sep-17 20:01 344 25.0
2019-Sep-17 19:45 324 25.0
2019-Sep-17 19:30 027 25.0
2019-Sep-17 19:16 087 24.4
2019-Sep-17 19:01 033 24.4
2019-Sep-17 18:45 312 25.0
2019-Sep-17 18:30 312 25.0
2019-Sep-17 18:15 312 0 gusting 1 26.1
2019-Sep-17 18:00 312 27.2
2019-Sep-17 17:45 312 28.9
2019-Sep-17 17:30 312 30.6
2019-Sep-17 17:15 335 31.1
2019-Sep-17 17:00 343 1 gusting 6 31.1
2019-Sep-17 16:45 004 1 gusting 4 31.1
2019-Sep-17 16:30 285 1 gusting 5 31.7
2019-Sep-17 16:15 278 1 gusting 4 31.7
2019-Sep-17 16:00 327 2 gusting 5 31.7
2019-Sep-17 15:45 255 31.7
2019-Sep-17 15:30 332 2 gusting 6 31.1
2019-Sep-17 15:15 315 4 gusting 7 31.1
2019-Sep-17 15:00 310 0 gusting 5 31.7
2019-Sep-17 14:47 338 2 gusting 6 31.1
2019-Sep-17 14:31 085 0 gusting 4 31.1
2019-Sep-17 14:16 014 4 gusting 8 31.1
2019-Sep-17 14:01 343 2 gusting 4 30.6
2019-Sep-17 13:46 055 0 gusting 3 30.0
2019-Sep-17 13:32 328 2 gusting 5 30.0
2019-Sep-17 13:16 099 0 gusting 2 30.0
2019-Sep-17 13:01 299 29.4
2019-Sep-17 12:46 248 1 gusting 5 28.9
2019-Sep-17 12:30 269 1 gusting 6 28.3
2019-Sep-17 12:15 202 27.8
2019-Sep-17 12:00 247 2 gusting 5 27.2
2019-Sep-17 11:46 183 1 gusting 3 27.2
2019-Sep-17 11:31 191 26.7
2019-Sep-17 11:16 341 25.6
2019-Sep-17 11:01 281 0 gusting 4 25.0
2019-Sep-17 10:45 246 24.4
2019-Sep-17 10:30 255 23.9
2019-Sep-17 10:15 289 0 gusting 4 23.3
2019-Sep-17 10:00 285 22.8
2019-Sep-17 09:47 280 1 gusting 4 22.8
2019-Sep-17 09:32 248 0 gusting 3 21.7
2019-Sep-17 09:16 135 0 gusting 4 20.6
2019-Sep-17 09:01 177 20.0
2019-Sep-17 08:46 160 18.9
2019-Sep-17 08:31 239 0 gusting 6 18.3
2019-Sep-17 08:16 197 17.8
2019-Sep-17 08:01 195 2 gusting 6 17.8
2019-Sep-17 07:45 239 0 gusting 4 17.8
2019-Sep-17 07:30 170 1 gusting 4 17.2
2019-Sep-17 07:15 150 1 gusting 6 17.2
2019-Sep-17 07:01 168 2 gusting 6 17.2
2019-Sep-17 06:45 166 0 gusting 3 16.7
2019-Sep-17 06:30 160 16.7
2019-Sep-17 06:15 178 16.7
2019-Sep-17 06:00 157 16.1
2019-Sep-17 05:45 158 16.1
2019-Sep-17 05:30 158 16.1
2019-Sep-17 05:15 158 16.7
2019-Sep-17 05:00 158 16.7
2019-Sep-17 04:45 144 0 gusting 1 16.7
2019-Sep-17 04:33 179 16.7
2019-Sep-17 04:16 179 16.7
2019-Sep-17 04:01 183 17.2
2019-Sep-17 03:48 183 17.2
2019-Sep-17 03:31 163 17.8
2019-Sep-17 03:16 191 0 gusting 3 17.8
2019-Sep-17 03:01 182 0 gusting 4 17.8
2019-Sep-17 02:46 176 17.8
2019-Sep-17 02:31 168 1 gusting 4 17.8
2019-Sep-17 02:17 174 17.8
2019-Sep-17 02:01 146 17.8
2019-Sep-17 01:46 146 17.8
2019-Sep-17 01:31 146 18.3
2019-Sep-17 01:16 146 18.9
2019-Sep-17 01:00 146 18.9
2019-Sep-17 00:46 149 18.9
2019-Sep-17 00:31 156 18.9
2019-Sep-17 00:16 156 19.4
2019-Sep-17 00:01 156 20.0
2019-Sep-16 23:46 156 20.0
2019-Sep-16 23:31 156 20.6
2019-Sep-16 23:16 156 20.6
2019-Sep-16 23:01 156 21.1
2019-Sep-16 22:46 156 21.7
2019-Sep-16 22:30 156 21.7
2019-Sep-16 22:15 135 21.7
2019-Sep-16 22:00 137 21.7
2019-Sep-16 21:45 126 0 gusting 2 21.7
2019-Sep-16 21:30 133 21.7
2019-Sep-16 21:15 133 21.7
2019-Sep-16 21:00 133 22.2
2019-Sep-16 20:45 133 22.2
2019-Sep-16 20:30 133 22.8
2019-Sep-16 20:15 139 22.8
2019-Sep-16 20:00 139 22.8
2019-Sep-16 19:45 145 23.3
2019-Sep-16 19:30 270 23.3
2019-Sep-16 19:15 110 23.3
2019-Sep-16 19:00 110 23.9
2019-Sep-16 18:45 110 24.4
2019-Sep-16 18:30 110 25.0
2019-Sep-16 18:15 100 25.6
2019-Sep-16 18:01 087 26.7
2019-Sep-16 17:45 084 28.3
2019-Sep-16 17:30 328 30.0
2019-Sep-16 17:15 354 31.1
2019-Sep-16 17:00 354 31.1
2019-Sep-16 16:45 345 30.6
2019-Sep-16 16:30 345 1 gusting 4 31.7
2019-Sep-16 16:15 014 0 gusting 4 31.1
2019-Sep-16 16:00 342 31.7
2019-Sep-16 15:45 180 31.1
2019-Sep-16 15:32 037 2 gusting 6 31.1
2019-Sep-16 15:18 295 31.1
2019-Sep-16 15:01 337 2 gusting 6 30.6
2019-Sep-16 14:47 322 2 gusting 6 31.1
2019-Sep-16 14:31 354 0 gusting 5 31.1
2019-Sep-16 14:16 068 1 gusting 6 31.1
2019-Sep-16 14:01 291 30.6
2019-Sep-16 13:47 343 4 gusting 8 30.0
2019-Sep-16 13:31 060 0 gusting 4 30.6
2019-Sep-16 13:16 074 0 gusting 5 30.0
2019-Sep-16 13:01 141 0 gusting 5 30.0
2019-Sep-16 12:46 347 2 gusting 6 30.0
2019-Sep-16 12:30 038 1 gusting 4 29.4
2019-Sep-16 12:15 049 1 gusting 5 28.9
2019-Sep-16 12:01 264 28.3
2019-Sep-16 11:45 212 0 gusting 4 27.8
2019-Sep-16 11:30 354 0 gusting 2 27.8
2019-Sep-16 11:15 249 26.7
2019-Sep-16 11:00 272 27.2
2019-Sep-16 10:45 109 0 gusting 4 26.7
2019-Sep-16 10:30 201 0 gusting 3 26.1
2019-Sep-16 10:15 193 25.6
2019-Sep-16 10:00 205 0 gusting 3 25.0
2019-Sep-16 09:45 223 1 gusting 4 24.4
2019-Sep-16 09:31 213 0 gusting 3 24.4
2019-Sep-16 09:17 158 23.9
2019-Sep-16 09:02 201 22.8
2019-Sep-16 08:46 326 21.7
2019-Sep-16 08:30 011 21.1
2019-Sep-16 08:16 158 20.6
2019-Sep-16 08:01 214 20.0
2019-Sep-16 07:45 218 0 gusting 2 19.4
2019-Sep-16 07:30 181 18.3
2019-Sep-16 07:15 046 17.8
2019-Sep-16 07:00 046 17.2
2019-Sep-16 06:45 266 16.7
2019-Sep-16 06:30 266 17.2
2019-Sep-16 06:15 106 17.2
2019-Sep-16 06:00 159 17.2
2019-Sep-16 05:45 177 0 gusting 5 17.2
2019-Sep-16 05:30 140 1 gusting 4 16.7
2019-Sep-16 05:15 133 16.7
2019-Sep-16 05:00 302 16.1
2019-Sep-16 04:47 302 16.7
2019-Sep-16 04:33 302 17.2
2019-Sep-16 04:16 133 0 gusting 3 17.2
2019-Sep-16 04:02 122 16.7
2019-Sep-16 03:46 083 16.7
2019-Sep-16 03:32 083 17.8
2019-Sep-16 03:16 146 17.2
2019-Sep-16 03:01 146 17.2
2019-Sep-16 02:46 146 17.2
2019-Sep-16 02:31 147 17.2
2019-Sep-16 02:16 147 17.2
2019-Sep-16 02:01 147 17.8